Time,TemperatureF,DewpointF,PressureIn,WindDirection,WindDirectionDegrees,WindSpeedMPH,WindSpeedGustMPH,Humidity,HourlyPrecipIn,Conditions,Clouds,dailyrainin,SoftwareType,DateUTC
2013-01-05 00:00:00,32.6,25.9,30.01,West,279,10.0,14.0,76,0.00,,,0.01,Wunderground v.1.15,2013-01-05 05:00:00,
2013-01-05 00:10:00,32.5,25.8,30.02,SW,224,7.0,7.0,76,0.00,,,0.00,Wunderground v.1.15,2013-01-05 05:10:00,
2013-01-05 00:20:00,32.5,25.8,30.03,NNE,27,9.0,12.0,76,0.00,,,0.00,Wunderground v.1.15,2013-01-05 05:20:00,
2013-01-05 00:30:00,32.5,25.8,30.03,West,271,11.0,11.0,76,0.00,,,0.00,Wunderground v.1.15,2013-01-05 05:30:00,
2013-01-05 00:40:00,32.4,25.7,30.03,West,267,9.0,9.0,76,0.00,,,0.00,Wunderground v.1.15,2013-01-05 05:40:00,
2013-01-05 00:50:00,32.3,25.6,30.03,WSW,248,10.0,14.0,76,0.00,,,0.00,Wunderground v.1.15,2013-01-05 05:50:00,
2013-01-05 01:00:00,32.1,25.4,30.04,West,271,8.0,8.0,76,0.00,,,0.00,Wunderground v.1.15,2013-01-05 06:00:00,
2013-01-05 01:11:00,32.1,25.4,30.04,WSW,258,8.0,12.0,76,0.00,,,0.00,Wunderground v.1.15,2013-01-05 06:11:00,
2013-01-05 01:20:00,32.0,25.3,30.04,WNW,285,10.0,12.0,76,0.00,,,0.00,Wunderground v.1.15,2013-01-05 06:20:00,
2013-01-05 01:31:00,31.8,25.1,30.04,West,269,8.0,12.0,76,0.00,,,0.00,Wunderground v.1.15,2013-01-05 06:31:00,
2013-01-05 01:41:00,31.7,25.0,30.05,West,265,9.0,12.0,76,0.00,,,0.00,Wunderground v.1.15,2013-01-05 06:41:00,
2013-01-05 01:51:00,31.5,24.8,30.05,West,277,9.0,9.0,76,0.00,,,0.00,Wunderground v.1.15,2013-01-05 06:51:00,
2013-01-05 02:01:00,31.1,24.4,30.06,WSW,240,8.0,8.0,76,0.00,,,0.00,Wunderground v.1.15,2013-01-05 07:01:00,
2013-01-05 02:10:00,31.2,24.8,30.06,WNW,289,9.0,12.0,77,0.00,,,0.00,Wunderground v.1.15,2013-01-05 07:10:00,
2013-01-05 02:20:00,31.2,24.5,30.07,WSW,252,8.0,12.0,76,0.00,,,0.00,Wunderground v.1.15,2013-01-05 07:20:00,
2013-01-05 02:30:00,31.3,24.6,30.08,West,275,8.0,12.0,76,0.00,,,0.00,Wunderground v.1.15,2013-01-05 07:30:00,
2013-01-05 02:40:00,31.3,24.6,30.08,West,263,8.0,12.0,76,0.00,,,0.00,Wunderground v.1.15,2013-01-05 07:40:00,
2013-01-05 02:50:00,31.4,24.7,30.09,West,262,7.0,12.0,76,0.00,,,0.00,Wunderground v.1.15,2013-01-05 07:50:00,
2013-01-05 03:00:00,31.4,25.0,30.09,West,261,5.0,12.0,77,0.00,,,0.00,Wunderground v.1.15,2013-01-05 08:00:00,
2013-01-05 03:10:00,31.5,25.1,30.09,West,275,7.0,12.0,77,0.00,,,0.00,Wunderground v.1.15,2013-01-05 08:10:00,
2013-01-05 03:20:00,31.6,24.9,30.10,WSW,252,7.0,7.0,76,0.00,,,0.00,Wunderground v.1.15,2013-01-05 08:20:00,
2013-01-05 03:30:00,31.8,25.1,30.09,WSW,258,7.0,7.0,76,0.00,,,0.00,Wunderground v.1.15,2013-01-05 08:30:00,
2013-01-05 03:40:00,31.8,25.1,30.10,WSW,241,6.0,6.0,76,0.00,,,0.00,Wunderground v.1.15,2013-01-05 08:40:00,
2013-01-05 03:50:00,31.9,25.2,30.10,West,271,6.0,6.0,76,0.00,,,0.00,Wunderground v.1.15,2013-01-05 08:50:00,
2013-01-05 04:00:00,32.0,25.3,30.10,WSW,244,7.0,12.0,76,0.00,,,0.00,Wunderground v.1.15,2013-01-05 09:00:00,
2013-01-05 04:11:00,31.9,25.2,30.11,WSW,242,6.0,12.0,76,0.00,,,0.00,Wunderground v.1.15,2013-01-05 09:11:00,
2013-01-05 04:20:00,31.9,25.2,30.11,West,271,7.0,12.0,76,0.00,,,0.00,Wunderground v.1.15,2013-01-05 09:20:00,
2013-01-05 04:31:00,31.9,25.2,30.10,West,267,7.0,7.0,76,0.00,,,0.00,Wunderground v.1.15,2013-01-05 09:31:00,
2013-01-05 04:41:00,31.9,25.2,30.11,WNW,285,6.0,6.0,76,0.00,,,0.00,Wunderground v.1.15,2013-01-05 09:41:00,
2013-01-05 04:51:00,31.8,25.1,30.12,West,259,6.0,6.0,76,0.00,,,0.00,Wunderground v.1.15,2013-01-05 09:51:00,
2013-01-05 05:01:00,31.9,25.2,30.13,West,277,5.0,12.0,76,0.00,,,0.00,Wunderground v.1.15,2013-01-05 10:01:00,
2013-01-05 05:10:00,31.9,25.2,30.13,West,271,6.0,6.0,76,0.00,,,0.00,Wunderground v.1.15,2013-01-05 10:10:00,
2013-01-05 05:20:00,31.9,25.2,30.14,West,259,6.0,6.0,76,0.00,,,0.00,Wunderground v.1.15,2013-01-05 10:20:00,
2013-01-05 05:30:00,31.9,25.2,30.15,West,273,6.0,6.0,76,0.00,,,0.00,Wunderground v.1.15,2013-01-05 10:30:00,
2013-01-05 05:40:00,32.0,25.3,30.15,West,263,6.0,6.0,76,0.00,,,0.00,Wunderground v.1.15,2013-01-05 10:40:00,
2013-01-05 05:50:00,32.1,25.4,30.16,West,271,5.0,5.0,76,0.00,,,0.00,Wunderground v.1.15,2013-01-05 10:50:00,
2013-01-05 06:00:00,32.1,25.4,30.16,WNW,284,5.0,5.0,76,0.00,,,0.00,Wunderground v.1.15,2013-01-05 11:00:00,
2013-01-05 06:10:00,32.1,25.4,30.17,West,265,6.0,6.0,76,0.00,,,0.00,Wunderground v.1.15,2013-01-05 11:10:00,
2013-01-05 06:20:00,32.1,25.7,30.18,WSW,239,5.0,6.0,77,0.00,,,0.00,Wunderground v.1.15,2013-01-05 11:20:00,
2013-01-05 06:30:00,32.1,25.7,30.18,SW,236,5.0,5.0,77,0.00,,,0.00,Wunderground v.1.15,2013-01-05 11:30:00,
2013-01-05 06:40:00,32.0,25.6,30.19,West,275,5.0,15.0,77,0.00,,,0.00,Wunderground v.1.15,2013-01-05 11:40:00,
2013-01-05 06:50:00,32.2,25.8,30.20,SW,233,6.0,15.0,77,0.00,,,0.00,Wunderground v.1.15,2013-01-05 11:50:00,
2013-01-05 07:00:00,32.3,25.9,30.21,West,266,6.0,15.0,77,0.00,,,0.00,Wunderground v.1.15,2013-01-05 12:00:00,
2013-01-05 07:10:00,32.3,25.9,30.22,SW,214,5.0,5.0,77,0.00,,,0.00,Wunderground v.1.15,2013-01-05 12:10:00,
2013-01-05 07:21:00,32.3,26.2,30.21,WNW,301,5.0,15.0,78,0.00,,,0.00,Wunderground v.1.15,2013-01-05 12:21:00,
2013-01-05 07:30:00,32.2,26.1,30.22,WSW,247,5.0,5.0,78,0.00,,,0.00,Wunderground v.1.15,2013-01-05 12:30:00,
2013-01-05 07:41:00,32.4,26.0,30.22,West,276,6.0,15.0,77,0.00,,,0.00,Wunderground v.1.15,2013-01-05 12:41:00,
2013-01-05 07:51:00,32.4,26.3,30.22,WSW,256,6.0,15.0,78,0.00,,,0.00,Wunderground v.1.15,2013-01-05 12:51:00,
2013-01-05 08:01:00,32.4,26.3,30.22,SW,235,6.0,15.0,78,0.00,,,0.00,Wunderground v.1.15,2013-01-05 13:01:00,
2013-01-05 08:11:00,32.4,26.0,30.23,West,265,6.0,6.0,77,0.00,,,0.00,Wunderground v.1.15,2013-01-05 13:11:00,
2013-01-05 08:20:00,32.5,26.4,30.23,WSW,240,6.0,15.0,78,0.00,,,0.00,Wunderground v.1.15,2013-01-05 13:20:00,
2013-01-05 08:30:00,32.5,26.4,30.24,WSW,257,6.0,6.0,78,0.00,,,0.00,Wunderground v.1.15,2013-01-05 13:30:00,
2013-01-05 08:40:00,32.5,26.4,30.24,WNW,292,5.0,15.0,78,0.00,,,0.00,Wunderground v.1.15,2013-01-05 13:40:00,
2013-01-05 08:50:00,32.5,26.4,30.25,WNW,286,4.0,15.0,78,0.00,,,0.00,Wunderground v.1.15,2013-01-05 13:50:00,
2013-01-05 09:00:00,32.7,26.6,30.26,West,271,4.0,15.0,78,0.00,,,0.00,Wunderground v.1.15,2013-01-05 14:00:00,
2013-01-05 09:10:00,32.8,26.4,30.26,West,267,5.0,15.0,77,0.00,,,0.00,Wunderground v.1.15,2013-01-05 14:10:00,
2013-01-05 09:20:00,33.0,26.6,30.27,SSW,212,5.0,15.0,77,0.00,,,0.00,Wunderground v.1.15,2013-01-05 14:20:00,
2013-01-05 09:30:00,33.0,26.6,30.27,WNW,284,4.0,15.0,77,0.00,,,0.00,Wunderground v.1.15,2013-01-05 14:30:00,
2013-01-05 09:40:00,33.1,26.7,30.28,West,267,4.0,4.0,77,0.00,,,0.00,Wunderground v.1.15,2013-01-05 14:40:00,
2013-01-05 09:50:00,33.2,26.8,30.28,NNW,330,5.0,15.0,77,0.00,,,0.00,Wunderground v.1.15,2013-01-05 14:50:00,
2013-01-05 10:00:00,33.4,26.6,30.28,SW,236,5.0,5.0,76,0.00,,,0.00,Wunderground v.1.15,2013-01-05 15:00:00,
2013-01-05 10:10:00,33.4,27.0,30.29,WSW,247,4.0,4.0,77,0.00,,,0.00,Wunderground v.1.15,2013-01-05 15:10:00,
2013-01-05 10:20:00,33.6,26.8,30.29,WNW,293,4.0,15.0,76,0.00,,,0.00,Wunderground v.1.15,2013-01-05 15:20:00,
2013-01-05 10:31:00,33.7,27.3,30.29,West,267,5.0,5.0,77,0.00,,,0.00,Wunderground v.1.15,2013-01-05 15:31:00,
2013-01-05 10:41:00,33.6,27.2,30.30,WSW,250,5.0,15.0,77,0.00,,,0.00,Wunderground v.1.15,2013-01-05 15:41:00,
2013-01-05 10:51:00,33.7,27.3,30.30,WSW,257,4.0,4.0,77,0.00,,,0.00,Wunderground v.1.15,2013-01-05 15:51:00,
2013-01-05 11:01:00,33.7,27.6,30.30,SW,230,4.0,4.0,78,0.00,,,0.00,Wunderground v.1.15,2013-01-05 16:01:00,
2013-01-05 11:11:00,33.8,27.7,30.29,SW,227,4.0,4.0,78,0.00,,,0.00,Wunderground v.1.15,2013-01-05 16:11:00,
2013-01-05 11:20:00,33.8,27.7,30.29,WSW,238,4.0,4.0,78,0.00,,,0.00,Wunderground v.1.15,2013-01-05 16:20:00,
2013-01-05 11:30:00,33.8,27.7,30.28,SSW,202,5.0,15.0,78,0.00,,,0.00,Wunderground v.1.15,2013-01-05 16:30:00,
2013-01-05 11:40:00,34.0,27.9,30.28,West,265,4.0,15.0,78,0.00,,,0.00,Wunderground v.1.15,2013-01-05 16:40:00,
2013-01-05 11:50:00,34.1,28.0,30.27,WSW,241,3.0,3.0,78,0.00,,,0.00,Wunderground v.1.15,2013-01-05 16:50:00,
2013-01-05 12:00:00,34.2,27.7,30.26,WSW,248,4.0,15.0,77,0.00,,,0.00,Wunderground v.1.15,2013-01-05 17:00:00,
2013-01-05 12:10:00,34.4,27.9,30.26,WSW,240,4.0,4.0,77,0.00,,,0.00,Wunderground v.1.15,2013-01-05 17:10:00,
2013-01-05 12:20:00,34.3,27.8,30.26,SSW,211,4.0,4.0,77,0.00,,,0.00,Wunderground v.1.15,2013-01-05 17:20:00,
2013-01-05 12:30:00,34.5,27.7,30.26,SW,223,5.0,5.0,76,0.00,,,0.00,Wunderground v.1.15,2013-01-05 17:30:00,
2013-01-05 12:40:00,34.6,27.8,30.25,NNW,332,4.0,15.0,76,0.00,,,0.01,Wunderground v.1.15,2013-01-05 17:40:00,
2013-01-05 12:51:00,34.9,27.8,30.25,SW,223,3.0,15.0,75,0.00,,,0.01,Wunderground v.1.15,2013-01-05 17:51:00,
2013-01-05 13:01:00,35.0,27.5,30.25,WSW,245,4.0,4.0,74,0.00,,,0.01,Wunderground v.1.15,2013-01-05 18:01:00,
2013-01-05 13:11:00,35.2,27.4,30.24,WSW,244,3.0,15.0,73,0.00,,,0.01,Wunderground v.1.15,2013-01-05 18:11:00,
2013-01-05 13:20:00,35.2,27.4,30.24,WSW,257,3.0,15.0,73,0.00,,,0.02,Wunderground v.1.15,2013-01-05 18:20:00,
2013-01-05 13:30:00,35.4,26.6,30.23,WSW,238,4.0,15.0,70,0.00,,,0.02,Wunderground v.1.15,2013-01-05 18:30:00,
2013-01-05 13:40:00,35.3,26.5,30.22,WSW,247,4.0,15.0,70,0.00,,,0.02,Wunderground v.1.15,2013-01-05 18:40:00,
2013-01-05 13:50:00,35.5,26.3,30.23,WSW,240,4.0,4.0,69,0.00,,,0.02,Wunderground v.1.15,2013-01-05 18:50:00,
2013-01-05 14:00:00,35.5,25.6,30.23,West,272,3.0,3.0,67,0.00,,,0.02,Wunderground v.1.15,2013-01-05 19:00:00,
2013-01-05 14:10:00,35.3,24.7,30.23,West,259,3.0,3.0,65,0.00,,,0.02,Wunderground v.1.15,2013-01-05 19:10:00,
2013-01-05 14:20:00,35.2,25.7,30.22,WSW,243,3.0,15.0,68,0.00,,,0.02,Wunderground v.1.15,2013-01-05 19:20:00,
2013-01-05 14:30:00,35.2,25.7,30.22,SSW,208,2.0,2.0,68,0.00,,,0.02,Wunderground v.1.15,2013-01-05 19:30:00,
2013-01-05 14:40:00,35.3,25.4,30.23,WSW,237,3.0,15.0,67,0.00,,,0.03,Wunderground v.1.15,2013-01-05 19:40:00,
2013-01-05 14:50:00,35.3,25.8,30.23,WSW,248,2.0,15.0,68,0.00,,,0.03,Wunderground v.1.15,2013-01-05 19:50:00,
2013-01-05 15:00:00,35.3,25.8,30.23,SW,232,3.0,3.0,68,0.00,,,0.03,Wunderground v.1.15,2013-01-05 20:00:00,
2013-01-05 15:10:00,35.1,25.9,30.23,West,265,3.0,15.0,69,0.00,,,0.03,Wunderground v.1.15,2013-01-05 20:10:00,
2013-01-05 15:21:00,35.0,26.2,30.23,WSW,246,4.0,4.0,70,0.00,,,0.03,Wunderground v.1.15,2013-01-05 20:21:00,
2013-01-05 15:30:00,34.9,26.1,30.23,WSW,247,3.0,15.0,70,0.00,,,0.03,Wunderground v.1.15,2013-01-05 20:30:00,
2013-01-05 15:41:00,34.9,26.1,30.23,West,270,2.0,15.0,70,0.00,,,0.03,Wunderground v.1.15,2013-01-05 20:41:00,
2013-01-05 15:51:00,34.8,25.7,30.23,SW,227,3.0,15.0,69,0.00,,,0.03,Wunderground v.1.15,2013-01-05 20:51:00,
2013-01-05 16:01:00,34.9,25.0,30.23,SSW,197,3.0,3.0,67,0.00,,,0.03,Wunderground v.1.15,2013-01-05 21:01:00,
2013-01-05 16:11:00,34.8,25.3,30.23,WSW,255,3.0,3.0,68,0.00,,,0.03,Wunderground v.1.15,2013-01-05 21:11:00,
2013-01-05 16:20:00,34.7,25.2,30.22,SW,219,2.0,15.0,68,0.00,,,0.03,Wunderground v.1.15,2013-01-05 21:20:00,
2013-01-05 16:30:00,34.6,24.8,30.22,SW,217,2.0,2.0,67,0.00,,,0.03,Wunderground v.1.15,2013-01-05 21:30:00,
2013-01-05 16:40:00,34.5,24.7,30.21,SSW,211,2.0,15.0,67,0.00,,,0.03,Wunderground v.1.15,2013-01-05 21:40:00,
2013-01-05 16:50:00,34.0,25.2,30.21,SSW,209,1.0,15.0,70,0.00,,,0.03,Wunderground v.1.15,2013-01-05 21:50:00,
2013-01-05 17:00:00,33.7,25.0,30.20,SSW,209,1.0,15.0,70,0.00,,,0.03,Wunderground v.1.15,2013-01-05 22:00:00,
2013-01-05 17:10:00,33.4,25.0,30.20,SSW,209,1.0,15.0,71,0.00,,,0.03,Wunderground v.1.15,2013-01-05 22:10:00,
2013-01-05 17:20:00,32.9,24.9,30.19,South,184,1.0,15.0,72,0.00,,,0.03,Wunderground v.1.15,2013-01-05 22:20:00,
2013-01-05 17:30:00,32.6,25.2,30.19,South,184,1.0,1.0,74,0.00,,,0.03,Wunderground v.1.15,2013-01-05 22:30:00,
2013-01-05 17:40:00,32.6,24.9,30.19,South,184,1.0,15.0,73,0.00,,,0.03,Wunderground v.1.15,2013-01-05 22:40:00,
2013-01-05 17:50:00,32.6,24.6,30.20,SSW,202,1.0,15.0,72,0.00,,,0.03,Wunderground v.1.15,2013-01-05 22:50:00,
2013-01-05 18:00:00,33.0,25.0,30.21,SSW,200,2.0,15.0,72,0.00,,,0.03,Wunderground v.1.15,2013-01-05 23:00:00,
2013-01-05 18:10:00,32.6,24.9,30.19,South,176,2.0,2.0,73,0.00,,,0.03,Wunderground v.1.15,2013-01-05 23:10:00,
2013-01-05 18:20:00,32.3,24.6,30.19,SSE,165,2.0,2.0,73,0.00,,,0.03,Wunderground v.1.15,2013-01-05 23:20:00,
2013-01-05 18:30:00,32.2,24.8,30.19,South,188,2.0,15.0,74,0.00,,,0.03,Wunderground v.1.15,2013-01-05 23:30:00,
2013-01-05 18:40:00,32.6,24.6,30.19,SSW,199,2.0,2.0,72,0.00,,,0.03,Wunderground v.1.15,2013-01-05 23:40:00,
2013-01-05 18:51:00,32.6,24.6,30.19,SW,219,2.0,15.0,72,0.00,,,0.03,Wunderground v.1.15,2013-01-05 23:51:00,
2013-01-05 19:01:00,32.3,24.6,30.19,SW,217,1.0,15.0,73,0.00,,,0.03,Wunderground v.1.15,2013-01-06 00:01:00,
2013-01-05 19:11:00,31.2,23.9,30.18,SSW,195,2.0,15.0,74,0.00,,,0.03,Wunderground v.1.15,2013-01-06 00:11:00,
2013-01-05 19:20:00,31.2,24.2,30.18,SSW,195,1.0,15.0,75,0.00,,,0.03,Wunderground v.1.15,2013-01-06 00:20:00,
2013-01-05 19:30:00,30.9,23.9,30.18,SSE,161,1.0,15.0,75,0.00,,,0.03,Wunderground v.1.15,2013-01-06 00:30:00,
2013-01-05 19:40:00,29.9,23.6,30.17,SSE,148,2.0,15.0,77,0.00,,,0.03,Wunderground v.1.15,2013-01-06 00:40:00,
2013-01-05 19:50:00,29.9,23.6,30.17,South,185,2.0,15.0,77,0.00,,,0.03,Wunderground v.1.15,2013-01-06 00:50:00,
2013-01-05 20:00:00,28.9,23.2,30.16,South,172,2.0,2.0,79,0.00,,,0.03,Wunderground v.1.15,2013-01-06 01:00:00,
2013-01-05 20:10:00,28.8,23.1,30.15,SSE,167,1.0,15.0,79,0.00,,,0.03,Wunderground v.1.15,2013-01-06 01:10:00,
2013-01-05 20:20:00,29.4,23.4,30.15,South,182,2.0,15.0,78,0.00,,,0.03,Wunderground v.1.15,2013-01-06 01:20:00,
2013-01-05 20:30:00,28.2,22.5,30.15,SSE,160,3.0,3.0,79,0.00,,,0.03,Wunderground v.1.15,2013-01-06 01:30:00,
2013-01-05 20:40:00,28.7,22.7,30.15,South,175,2.0,15.0,78,0.00,,,0.03,Wunderground v.1.15,2013-01-06 01:40:00,
2013-01-05 20:50:00,28.2,22.2,30.14,South,170,2.0,15.0,78,0.00,,,0.03,Wunderground v.1.15,2013-01-06 01:50:00,
2013-01-05 21:00:00,28.5,22.8,30.15,South,173,2.0,15.0,79,0.00,,,0.03,Wunderground v.1.15,2013-01-06 02:00:00,
2013-01-05 21:10:00,29.1,23.1,30.15,SSW,196,2.0,15.0,78,0.00,,,0.03,Wunderground v.1.15,2013-01-06 02:10:00,
2013-01-05 21:20:00,29.3,23.3,30.15,SSW,205,2.0,2.0,78,0.00,,,0.03,Wunderground v.1.15,2013-01-06 02:20:00,
2013-01-05 21:30:00,28.9,23.2,30.15,SSW,207,1.0,15.0,79,0.00,,,0.03,Wunderground v.1.15,2013-01-06 02:30:00,
2013-01-05 21:41:00,29.2,23.5,30.16,SW,214,2.0,15.0,79,0.00,,,0.03,Wunderground v.1.15,2013-01-06 02:41:00,
2013-01-05 21:51:00,29.4,23.1,30.13,SSW,195,2.0,15.0,77,0.00,,,0.03,Wunderground v.1.15,2013-01-06 02:51:00,
2013-01-05 22:01:00,29.2,23.2,30.12,SSE,163,2.0,15.0,78,0.00,,,0.03,Wunderground v.1.15,2013-01-06 03:01:00,
2013-01-05 22:11:00,29.6,23.3,30.11,SSE,148,2.0,15.0,77,0.00,,,0.03,Wunderground v.1.15,2013-01-06 03:11:00,
2013-01-05 22:20:00,30.0,23.7,30.12,SSW,196,3.0,3.0,77,0.00,,,0.03,Wunderground v.1.15,2013-01-06 03:20:00,
2013-01-05 22:30:00,29.5,23.5,30.12,South,171,2.0,15.0,78,0.00,,,0.03,Wunderground v.1.15,2013-01-06 03:30:00,
2013-01-05 22:40:00,30.1,23.4,30.11,South,188,2.0,2.0,76,0.00,,,0.03,Wunderground v.1.15,2013-01-06 03:40:00,
2013-01-05 22:50:00,30.3,23.6,30.11,South,188,1.0,15.0,76,0.00,,,0.03,Wunderground v.1.15,2013-01-06 03:50:00,
2013-01-05 23:00:00,30.2,23.9,30.12,South,174,2.0,15.0,77,0.00,,,0.03,Wunderground v.1.15,2013-01-06 04:00:00,
2013-01-05 23:10:00,30.6,23.6,30.12,SSW,205,2.0,15.0,75,0.00,,,0.03,Wunderground v.1.15,2013-01-06 04:10:00,
2013-01-05 23:20:00,31.0,23.7,30.13,SSW,200,3.0,3.0,74,0.00,,,0.03,Wunderground v.1.15,2013-01-06 04:20:00,
2013-01-05 23:30:00,31.1,24.1,30.11,South,169,4.0,4.0,75,0.00,,,0.03,Wunderground v.1.15,2013-01-06 04:30:00,
2013-01-05 23:40:00,30.7,25.9,30.11,South,179,5.0,15.0,82,0.00,,,0.03,Wunderground v.1.15,2013-01-06 04:40:00,
2013-01-05 23:50:00,30.3,26.0,30.09,SSE,164,4.0,15.0,84,0.00,,,0.03,Wunderground v.1.15,2013-01-06 04:50:00,